Météo par heure à Alhos Vedros

Ce jour, 13 Mai, Jeudi

Heure Température Précipitation Vent Pression Humidité
00:00 +13°C° 0 mm 2 m/s 764 mmHg 89%
01:00 +13°C° 0 mm 2 m/s 764 mmHg 90%
02:00 +13°C° 0 mm 2 m/s 763 mmHg 91%
03:00 +13°C° 0 mm 2 m/s 763 mmHg 91%
04:00 +13°C° 0 mm 2 m/s 763 mmHg 91%
05:00 +13°C° 0 mm 2 m/s 763 mmHg 91%
06:00 +14°C° 0 mm 3 m/s 763 mmHg 82%
07:00 +17°C° 0 mm 3 m/s 763 mmHg 72%
08:00 +19°C° 0 mm 4 m/s 763 mmHg 63%
09:00 +20°C° 0 mm 4 m/s 763 mmHg 61%
10:00 +21°C° 0 mm 5 m/s 763 mmHg 59%
11:00 +22°C° 0 mm 6 m/s 763 mmHg 57%
12:00 +21°C° 0 mm 6 m/s 762 mmHg 63%
13:00 +20°C° 0 mm 6 m/s 762 mmHg 69%
14:00 +19°C° 0 mm 6 m/s 762 mmHg 74%
15:00 +20°C° 0 mm 6 m/s 762 mmHg 71%
16:00 +20°C° 0 mm 6 m/s 761 mmHg 68%
17:00 +20°C° 0 mm 6 m/s 761 mmHg 64%
18:00 +17°C° 0 mm 6 m/s 762 mmHg 72%
19:00 +16°C° 0 mm 6 m/s 762 mmHg 80%
20:00 +14°C° 0 mm 5 m/s 762 mmHg 87%
21:00 +14°C° 0 mm 5 m/s 762 mmHg 89%
22:00 +14°C° 0 mm 5 m/s 762 mmHg 91%
23:00 +13°C° 0 mm 4 m/s 762 mmHg 93%

Demain, 14 Mai, Vendredi

Heure Température Précipitation Vent Pression Humidité
00:00 +13°C° 0 mm 4 m/s 762 mmHg 92%
01:00 +13°C° 0 mm 4 m/s 762 mmHg 92%
02:00 +12°C° 0 mm 4 m/s 761 mmHg 92%
03:00 +12°C° 0 mm 4 m/s 762 mmHg 91%
04:00 +12°C° 0 mm 4 m/s 762 mmHg 91%
05:00 +12°C° 0 mm 3 m/s 762 mmHg 91%
06:00 +14°C° 0 mm 4 m/s 762 mmHg 80%
07:00 +17°C° 0 mm 4 m/s 762 mmHg 69%
08:00 +19°C° 0 mm 4 m/s 763 mmHg 58%
09:00 +20°C° 0 mm 4 m/s 762 mmHg 53%
10:00 +22°C° 0 mm 4 m/s 762 mmHg 48%
11:00 +23°C° 0 mm 4 m/s 762 mmHg 43%
12:00 +23°C° 0 mm 5 m/s 762 mmHg 44%
13:00 +23°C° 0 mm 5 m/s 762 mmHg 44%
14:00 +23°C° 0 mm 6 m/s 761 mmHg 45%
15:00 +22°C° 0 mm 6 m/s 761 mmHg 50%
16:00 +21°C° 0 mm 5 m/s 761 mmHg 55%
17:00 +20°C° 0 mm 5 m/s 761 mmHg 60%
18:00 +19°C° 0 mm 4 m/s 762 mmHg 67%
19:00 +17°C° 0 mm 4 m/s 762 mmHg 75%
20:00 +16°C° 0 mm 3 m/s 762 mmHg 83%
21:00 +14°C° 0 mm 3 m/s 762 mmHg 86%
22:00 +15°C° 0 mm 2 m/s 762 mmHg 90%
23:00 +15°C° 0 mm 2 m/s 761 mmHg 93%

Après-demain, 15 Mai, Samedi

Heure Température Précipitation Vent Pression Humidité
00:00 +14°C° 0 mm 2 m/s 761 mmHg 94%
01:00 +14°C° 0 mm 1 m/s 761 mmHg 95%
02:00 +14°C° 0 mm 1 m/s 761 mmHg 95%
03:00 +14°C° 0 mm 1 m/s 761 mmHg 95%
04:00 +14°C° 0 mm 1 m/s 761 mmHg 94%
05:00 +14°C° 0 mm 1 m/s 761 mmHg 93%
06:00 +18°C° 0 mm 1 m/s 761 mmHg 82%
07:00 +19°C° 0 mm 2 m/s 761 mmHg 71%
08:00 +23°C° 0 mm 2 m/s 761 mmHg 59%
09:00 +24°C° 0 mm 2 m/s 761 mmHg 55%
10:00 +25°C° 0 mm 3 m/s 761 mmHg 50%
11:00 +27°C° 0 mm 4 m/s 761 mmHg 46%
12:00 +27°C° 0 mm 4 m/s 761 mmHg 47%
13:00 +27°C° 0 mm 5 m/s 760 mmHg 48%
14:00 +27°C° 0 mm 5 m/s 760 mmHg 48%
15:00 +26°C° 0 mm 5 m/s 760 mmHg 54%
16:00 +25°C° 0 mm 5 m/s 760 mmHg 59%
17:00 +22°C° 0 mm 6 m/s 760 mmHg 64%
18:00 +21°C° 0 mm 5 m/s 760 mmHg 73%
19:00 +19°C° 0 mm 4 m/s 761 mmHg 82%
20:00 +18°C° 0 mm 4 m/s 761 mmHg 90%
21:00 +17°C° 0 mm 3 m/s 761 mmHg 91%
22:00 +17°C° 0 mm 3 m/s 761 mmHg 91%
23:00 +17°C° 0 mm 2 m/s 761 mmHg 91%

16 Mai, Dimanche

Heure Température Précipitation Vent Pression Humidité
00:00 +17°C° 0 mm 2 m/s 761 mmHg 92%
01:00 +16°C° 0 mm 2 m/s 760 mmHg 94%
02:00 +16°C° 0 mm 2 m/s 760 mmHg 95%
03:00 +17°C° 0 mm 2 m/s 760 mmHg 94%
04:00 +17°C° 0 mm 2 m/s 760 mmHg 93%
05:00 +17°C° 0 mm 2 m/s 760 mmHg 93%
06:00 +19°C° 0 mm 3 m/s 761 mmHg 84%
07:00 +20°C° 0 mm 4 m/s 761 mmHg 76%
08:00 +21°C° 0 mm 4 m/s 761 mmHg 68%
09:00 +22°C° 0 mm 5 m/s 761 mmHg 65%
10:00 +23°C° 0 mm 6 m/s 761 mmHg 62%
11:00 +24°C° 0 mm 6 m/s 761 mmHg 59%
12:00 +24°C° 0 mm 6 m/s 761 mmHg 59%
13:00 +24°C° 0 mm 6 m/s 761 mmHg 59%
14:00 +24°C° 0 mm 6 m/s 760 mmHg 58%
15:00 +23°C° 0 mm 6 m/s 760 mmHg 61%
16:00 +22°C° 0 mm 6 m/s 761 mmHg 65%
17:00 +21°C° 0 mm 6 m/s 761 mmHg 68%
18:00 +20°C° 0 mm 6 m/s 761 mmHg 73%
19:00 +17°C° 0 mm 6 m/s 762 mmHg 78%
20:00 +16°C° 0 mm 6 m/s 762 mmHg 83%
21:00 +15°C° 0 mm 6 m/s 762 mmHg 80%
22:00 +15°C° 0 mm 6 m/s 762 mmHg 77%
23:00 +14°C° 0 mm 6 m/s 762 mmHg 75%

17 Mai, Lundi

Heure Température Précipitation Vent Pression Humidité
00:00 +14°C° 0 mm 6 m/s 762 mmHg 73%
01:00 +14°C° 0 mm 6 m/s 762 mmHg 72%
02:00 +14°C° 0 mm 6 m/s 762 mmHg 71%
03:00 +14°C° 0 mm 6 m/s 763 mmHg 69%
04:00 +14°C° 0 mm 6 m/s 763 mmHg 67%
05:00 +14°C° 0 mm 6 m/s 763 mmHg 65%
06:00 +15°C° 0 mm 7 m/s 764 mmHg 58%
07:00 +17°C° 0 mm 7 m/s 764 mmHg 51%
08:00 +18°C° 0 mm 7 m/s 764 mmHg 43%
09:00 +20°C° 0 mm 7 m/s 764 mmHg 38%
10:00 +22°C° 0 mm 7 m/s 764 mmHg 33%
11:00 +23°C° 0 mm 7 m/s 764 mmHg 28%
12:00 +24°C° 0 mm 7 m/s 764 mmHg 28%
13:00 +24°C° 0 mm 7 m/s 764 mmHg 28%
14:00 +24°C° 0 mm 8 m/s 763 mmHg 28%
15:00 +23°C° 0 mm 8 m/s 763 mmHg 32%
16:00 +21°C° 0 mm 8 m/s 764 mmHg 37%
17:00 +20°C° 0 mm 8 m/s 764 mmHg 41%
18:00 +17°C° 0 mm 8 m/s 764 mmHg 48%
19:00 +16°C° 0 mm 7 m/s 765 mmHg 55%
20:00 +14°C° 0 mm 6 m/s 765 mmHg 62%
21:00 +13°C° 0 mm 6 m/s 765 mmHg 65%
22:00 +13°C° 0 mm 5 m/s 765 mmHg 68%
23:00 +12°C° 0 mm 4 m/s 765 mmHg 72%

18 Mai, Mardi

Heure Température Précipitation Vent Pression Humidité
00:00 +12°C° 0 mm 4 m/s 764 mmHg 75%
01:00 +12°C° 0 mm 4 m/s 764 mmHg 79%
02:00 +11°C° 0 mm 3 m/s 764 mmHg 82%
03:00 +11°C° 0 mm 3 m/s 764 mmHg 83%
04:00 +11°C° 0 mm 3 m/s 764 mmHg 84%
05:00 +11°C° 0 mm 3 m/s 764 mmHg 85%
06:00 +14°C° 0 mm 3 m/s 764 mmHg 71%
07:00 +18°C° 0 mm 3 m/s 764 mmHg 58%
08:00 +21°C° 0 mm 3 m/s 764 mmHg 44%
09:00 +24°C° 0 mm 3 m/s 764 mmHg 38%
10:00 +26°C° 0 mm 3 m/s 764 mmHg 32%
11:00 +28°C° 0 mm 3 m/s 764 mmHg 26%
12:00 +29°C° 0 mm 4 m/s 763 mmHg 25%
13:00 +30°C° 0 mm 4 m/s 763 mmHg 24%
14:00 +32°C° 0 mm 4 m/s 763 mmHg 23%
15:00 +29°C° 0 mm 5 m/s 763 mmHg 28%
16:00 +28°C° 0 mm 6 m/s 762 mmHg 32%
17:00 +26°C° 0 mm 6 m/s 762 mmHg 37%
18:00 +23°C° 0 mm 6 m/s 763 mmHg 40%
19:00 +20°C° 0 mm 5 m/s 763 mmHg 43%
20:00 +17°C° 0 mm 5 m/s 763 mmHg 46%
21:00 +17°C° 0 mm 4 m/s 763 mmHg 46%
22:00 +17°C° 0 mm 4 m/s 763 mmHg 46%
23:00 +15°C° 0 mm 4 m/s 763 mmHg 46%
Voir plus

Nous avons besoin de votre consentement

Meteoprog et ses fournisseurs de services peuvent stocker et accéder à des données personnelles telles que des cookies, des identifiants d'appareils ou d'autres technologies similaires sur votre appareil et traiter ces données pour personnaliser le contenu et les publicités, ainsi que pour fournir des fonctionnalités de médias sociaux et analyser le trafic.

  • Stocker et/ou accéder à des informations sur votre appareil

    Des cookies, des identifiants d'appareils ou d'autres informations peuvent être stockés ou accessibles sur votre appareil aux fins indiquées ci-dessus.

  • Annonces et contenus personnalisés, mesure des annonces et des contenus, connaissance de l'audience et développement de produits

    Les annonces et le contenu peuvent être personnalisés en fonction d'un profil. D'autres données peuvent être ajoutées pour mieux personnaliser les annonces et le contenu. Les performances des publicités et du contenu peuvent être mesurées. Il est possible d'obtenir des informations sur le public qui a vu les publicités et le contenu. Ces données peuvent être utilisées pour développer ou améliorer l'expérience de l'utilisateur, les systèmes et les logiciels.

En cliquant sur "J'accepte", vous autorisez l'utilisation de cookies, des identifiants d'appareils, des balises web ou d'autres technologies similaires. Vos paramètres peuvent être modifiés dans le navigateur de votre appareil.

Dans certains cas, des intérêts légitimes peuvent être invoqués plutôt qu'un consentement. Vous pouvez en savoir plus à ce sujet dans notre Politique de confidentialité et de cookies.